Regional Weather Roundup
Issued by NWS

Home | Current Version | Previous Version | Graphics & Text | Print | Product List | Glossary On
Versions: 1 2 3 4 5 6 7 8 9 10 11 12 13 14 15 16 17 18 19 20 21 22 23 24 25 26 27 28 29 30 31 32 33 34 35 36 37 38 39 40 41 42 43 44 45 46 47 48 49 50
000
ASUS43 KLOT 220406
RWRIL

ILLINOIS REGIONAL WEATHER ROUNDUP
NATIONAL WEATHER SERVICE CHICAGO/ROMEOVILLE IL
1000 PM CST SUN DEC 21 2014

NOTE: "FAIR" INDICATES FEW OR NO CLOUDS BELOW 12,000 FEET WITH NO
SIGNIFICANT WEATHER AND/OR OBSTRUCTIONS TO VISIBILITY.

* THESE STATIONS ARE NOT UNDER NWS QUALITY CONTROL. THEY ALSO MAY NOT
  REPORT WEATHER SUCH AS PRECIPITATION OR FOG.

ILZ001-002-007-009-015-016-024-220500-
NORTHWEST ILLINOIS

CITY           SKY/WX    TMP DP  RH WIND       PRES   REMARKS
MOLINE         CLOUDY    36  31  82 SE16      29.92F WCI  26
STERLING*      CLOUDY    36  28  75 SE12      29.97S WCI  27
SAVANNA*       CLOUDY    35  31  84 SE10      29.95F WCI  28
$$

ILZ003-004-008-010-011-017-018-220500-
NORTH CENTRAL ILLINOIS

CITY           SKY/WX    TMP DP  RH WIND       PRES   REMARKS
ROCKFORD       CLOUDY    36  29  75 S12       30.01S WCI  28
FREEPORT*      CLOUDY    34  30  86 SE13G21   29.98F WCI  25
ROCHELLE*      CLOUDY    33  31  92 S16       29.99S WCI  23
DE KALB*       CLOUDY    32  29  88 SE16      30.00F WCI  22
PERU*          CLOUDY    36  30  81 SE14G22   30.00F WCI  27
$$

ILZ005-006-012>014-019>023-220500-
NORTHEAST ILLINOIS

CITY           SKY/WX    TMP DP  RH WIND       PRES   REMARKS
CHICAGO-OHARE  MOCLDY    34  28  79 S12       30.03F WCI  25
CHICAGO-MIDWAY CLOUDY    35  28  75 SE9       30.04F WCI  28
AURORA         CLOUDY    34  28  79 SE10      30.02F WCI  26
LANSING*       MOCLDY    32  28  84 SE9       30.05F FOG     WCI  24
JOLIET*        PTCLDY    31  28  88 S5        30.05S FOG     WCI  27
WAUKEGAN       MOCLDY    34  29  82 SE13      30.02F WCI  25
DUPAGE AIRPORT MOCLDY    33  28  81 S10       30.01F WCI  25
KANKAKEE*      CLEAR     31  28  90 SE9       30.06S WCI  23
WHEELING       MOCLDY    34  28  79 S10       30.04F WCI  26
MORRIS*        CLOUDY    34  31  90 SE14      30.02F WCI  25
ROMEOVILLE*    MOCLDY    32  29  89 S10       30.04S FOG     WCI  23
NORTHERLY ISL    N/A     34  28  79 SE14        N/A  WCI  25
$$

LMZ740>746-220500-
SOUTHERN LAKE MICHIGAN

STATION/POSITION SKY/WX   TEMP    WIND        PRES    VSBY  WAVE
                          AIR SEA DIR/SP/G                  HT/PER
                          (F)     (DEG/KT/KT) (MB)    (MI)  (FT/S)
WAUKEGAN HARBOR            35     150/ 22/ 25   N/A
HARRISON CRIB              34     150/ 19/ 24   N/A
BURNHAM HARBOR             33     150/ 14/ 16   N/A
CALUMET HARBOR             33     150/  9/ 13 1016.3F
$$

ILZ025>027-034>036-040-047-049-050-058-095>099-220500-
WEST-CENTRAL ILLINOIS

CITY           SKY/WX    TMP DP  RH WIND       PRES   REMARKS
QUINCY         CLOUDY    40  33  76 S10       29.91S
GALESBURG*     CLOUDY    35  32  88 SE8       29.93F WCI  29
MACOMB*        CLOUDY    37  33  87 SE9       29.95F WCI  30
JACKSONVILLE*  CLOUDY    41  33  72 SE12      29.95F
PITTSFIELD*    CLOUDY    40  34  78 SE9       29.94F
$$

ILZ028>032-037-038-041>044-048-051>054-059>061-220500-
CENTRAL ILLINOIS

CITY           SKY/WX    TMP DP  RH WIND       PRES   REMARKS
PONTIAC        CLOUDY    32  31  95 SE9       30.02F WCI  24
BLOOMINGTON    MOCLDY    33  30  89 SE17      30.00F WCI  22
DECATUR        CLOUDY    35  30  82 SE12      30.01F WCI  27
PEORIA         LGT RAIN  37  30  75 SE9       29.98F WCI  30
LACON*         CLOUDY    35  29  78 S7        29.99S WCI  29
LINCOLN*       CLOUDY    37  32  84 SE8       30.00F WCI  30
SPRINGFIELD    CLOUDY    39  30  70 SE14G24   29.97F WCI  31
TAYLORVILLE    CLOUDY    36  30  80 SE12      30.00S WCI  27
$$

ILZ033-039-045-046-055>057-062-063-220500-
EAST-CENTRAL ILLINOIS

CITY           SKY/WX    TMP DP  RH WIND       PRES   REMARKS
CHAMPAIGN      CLOUDY    31  28  89 SE10      30.03F FOG     WCI  22
DANVILLE*      PTCLDY    31  28  89 SE8       30.03F WCI  24
RANTOUL*       MOCLDY    33  30  90 SE12      30.03F WCI  24
MATTOON        PTCLDY    31  27  85 SE8       30.03F WCI  23
PARIS*         PTCLDY    32  30  91 SE3       30.07S
$$

ILZ079-100>102-220500-
SOUTHWEST ILLINOIS

CITY           SKY/WX    TMP DP  RH WIND       PRES   REMARKS
ALTON          CLOUDY    40  32  73 E7        29.97F
BELLEVILLE     CLOUDY    40  34  78 SE6       29.97F
CAHOKIA*       CLOUDY    42  33  70 SE10      29.97F
SPARTA*        CLOUDY    39  31  73 SE9       29.99F WCI  33
$$

ILZ064>066-069>071-074>076-080>082-084>086-088>090-092>094-220500-
SOUTH-CENTRAL ILLINOIS

CITY           SKY/WX    TMP DP  RH WIND       PRES   REMARKS
CARBONDALE     CLOUDY    38  30  73 SE7       30.00F WCI  33
CAIRO*         CLOUDY    42  33  70 E5        30.00S
EFFINGHAM*     PTCLDY    34  27  77 E7        30.03F WCI  28
MARION         CLOUDY    39  32  75 E6        30.00F WCI  35
MT. VERNON     CLOUDY    36  27  69 E6        30.02S WCI  31
CENTRALIA*     CLOUDY    36  29  76 SE7       30.00F WCI  31
SALEM*         MOCLDY    38  31  76 SE6       30.02S WCI  33
METROPOLIS*    CLOUDY    38  32  78 CALM      30.00S
$$

ILZ067-068-072-073-078-083-087-091-220500-
SOUTHEAST ILLINOIS

CITY           SKY/WX    TMP DP  RH WIND       PRES   REMARKS
LAWRENCEVILLE  CLEAR     31  27  85 E6        30.06F WCI  25
FLORA*         CLEAR     33  29  85 E6        30.02F WCI  28
FAIRFIELD*     PTCLDY    34  29  83 CALM      30.02F
HARRISBURG*    MOCLDY    35  30  82 E6        30.03S WCI  30
ROBINSON*      FAIR      31  28  88 SE7       30.07S WCI  24
CARMI*         CLEAR     31  30  95 E8        30.02F WCI  24
$$

ABBREVIATIONS USED IN REMARKS
   TC - TEMPERATURE IN CELSIUS
  WCI - WIND CHILL INDEX
   HX - HEAT INDEX
  VSB - VISIBILITY
$$




USA.gov is the U.S. government's official web portal to all federal, state and local government web resources and services.